Location: Boiro
(42.6475°N, 8.8834°W)
Time: 23:49:54
(UTC+01:00)

A-11 Canister half - Pass Details

Date: 01 December 2021
Orbit: 1516 x 1684 km, 47.2° (Epoch: 18 January)

Event Time Altitude Azimuth Distance (km) Brightness Sun altitude
Rises 11:22:47 0° 265° (W) 4,816 11.4 19.6°
Reaches altitude 10° 11:25:54 10° 267° (W) 3,853 10.9 19.9°
Maximum altitude 11:35:48 71° 352° (N) 1,744 9.4 20.8°
Drops below altitude 10° 11:45:58 10° 76° (ENE) 3,947 11.4 21.6°
Sets 11:49:11 0° 79° (ENE) 4,939 11.8 21.8°
